Location: Utrecht
(52.0830°N, 5.1330°E)
Time: 23:43:15
(UTC+02:00)

Daily predictions for brighter satellites

Satellite Brightness Start Highest point End
(mag) Time Altitude Azimuth Time Altitude Azimuth Time Altitude Azimuth
USA 32 4.2 22:43:30 10° N 22:48:46 67° E 22:54:00 10° SSE
Envisat 4.3 22:45:40 10° SSW 22:50:23 38° W 22:55:09 10° NNW
Terra 2.3 22:51:44 10° SE 22:56:20 50° ENE 23:00:58 10° N
DELTA 2 DEB (DPAF) 4.2 22:54:51 10° SSE 22:59:20 76° ENE 23:03:50 10° NNW
Cosmos 1455 2.7 22:56:44 10° N 23:00:26 46° ENE 23:04:07 10° SSE
Cosmos 1437 4.3 22:57:21 10° SW 23:00:27 38° WNW 23:03:35 10° N
SAR-Lupe-2 4.3 22:58:15 10° SE 23:01:38 40° ENE 23:05:01 10° N
Cosmos 1980 3.8 22:56:02 10° NNW 23:01:44 89° ENE 23:07:23 10° SSE
Nadezhda 1 Rocket 4.1 22:55:56 10° N 23:02:01 67° ENE 23:08:07 10° SSE
Cosmos 1805 Rocket 3.8 22:58:14 10° SSW 23:02:41 75° W 23:07:09 10° N
Spot 4 4.4 22:58:19 10° SE 23:02:58 47° ENE 23:07:39 10° N
Meteor 2-10 4.3 23:02:18 10° NNW 23:08:03 90° SW 23:13:48 10° S
Cosmos 1937 Rocket 3.7 23:05:16 10° S 23:10:18 51° ESE 23:15:20 10° NNE
SL-08 RB Rocket 4.0 23:07:14 10° S 23:11:42 68° WSW 23:16:13 10° NNW
Cosmos 2219 3.4 23:07:46 10° SSW 23:13:33 80° WNW 23:19:20 10° NNE
Cosmos 1346 4.0 23:11:20 10° SSE 23:14:04 32° E 23:16:49 10° NNE
Cosmos 2237 Rocket 2.3 23:08:21 10° NNW 23:14:06 83° WSW 23:19:46 10° SSE
ERBS 4.0 23:12:22 10° S 23:14:39 17° SE 23:16:57 10° E
IGS 5A 3.7 23:10:33 10° SSE 23:14:40 63° ENE 23:18:49 10° N
Cosmos 1726 3.4 23:11:09 10° NNW 23:14:43 40° W 23:18:16 10° SSW
Cosmos 2298 Rocket 4.1 23:10:25 10° SSW 23:15:45 84° ESE 23:21:07 10° NNE
CZ-4 R/B 3.9 23:12:38 10° NNE 23:17:38 78° ESE 23:22:30 10° SSW
USA 234 3.9 23:11:45 10° ENE 23:18:10 61° N 23:24:36 10° W
NOSS 0 Rocket 4.3 23:13:07 10° NW 23:19:11 62° WSW 23:25:14 10° SSE
Cosmos 990 Rocket 4.3 23:15:04 10° S 23:19:56 45° ESE 23:24:50 10° NE
Cosmos 220 Rocket 4.2 23:16:38 10° S 23:20:57 57° ESE 23:25:20 10° NNE
Cosmos 1745 Rocket 4.0 23:15:07 10° S 23:21:17 72° E 23:27:27 10° NNE
Cosmos 1869 3.4 23:20:16 10° N 23:24:20 70° ENE 23:28:05 12° SSE
Cosmos 2082 4.2 23:19:13 10° S 23:24:32 41° ESE 23:29:52 10° NE
Cosmos 1666 Rocket 4.1 23:21:02 10° SSW 23:25:24 60° WNW 23:29:51 10° N
CZ-4B R/B 3.9 23:22:08 10° NNE 23:27:25 70° WNW 23:32:37 10° SSW
Okean 1-7 4.4 23:24:03 10° N 23:27:44 27° ENE 23:31:16 11° SE
Meteor 1-4 Rocket 4.1 23:30:20 10° NNW 23:33:45 32° W 23:37:05 10° SSW
Cosmos 1269 Rocket 4.1 23:28:38 10° NNW 23:33:59 75° ENE 23:38:45 13° SSE
Cosmos 192 4.5 23:30:25 10° NNW 23:35:20 74° WSW 23:39:47 13° SSE
CZ-4C R/B 4.0 23:34:14 10° S 23:37:33 41° W 23:40:54 10° NNW
Cosmos 1703 Rocket 4.0 23:33:40 10° N 23:37:55 49° ENE 23:41:31 14° SSE
Cosmos 1271 Rocket 4.2 23:35:01 10° NNW 23:38:29 32° W 23:41:57 10° SSW
Cosmos 1470 Rocket 3.5 23:34:38 10° S 23:38:57 84° E 23:43:19 10° NNE
Cosmos 1933 Rocket 3.6 23:35:39 10° S 23:40:07 83° E 23:44:37 10° NNE
H-2A R/B 2.4 23:35:07 10° S 23:40:28 68° WSW 23:45:56 10° NNW
Tiangong 1 3.0 23:41:22 10° SSW 23:42:37 14° S 23:42:37 14° S
Cosmos 1386 Rocket 4.4 23:38:09 10° S 23:44:09 77° E 23:50:12 10° NNE
NOSS 3-1 (A) 3.5 23:40:57 10° SW 23:47:01 83° SE 23:53:53 10° NE
Cosmos 2221 Rocket 3.8 23:46:31 10° N 23:51:05 63° ENE 23:54:41 16° SSE
Cosmos 1703 4.0 23:47:35 10° SSW 23:51:24 51° WNW 23:55:15 10° N
CZ-4C R/B 3.5 23:44:58 10° NW 23:51:26 52° NNE 23:58:42 10° ESE
SeaSat 1 2.9 23:47:15 11° SE 23:51:49 57° NE 23:56:40 10° NNW
Cosmos 2181 Rocket 4.2 23:45:34 10° N 23:51:58 73° ENE 23:57:32 14° SSE
Cosmos 1898 Rocket 4.1 23:49:31 10° SW 23:54:38 59° WNW 23:59:50 10° NNE
